Weather History for Ypsilanti, MI

Change the Weather History Date:

Monday, February 10, 2014

  Actual Average Record
Temperature  
Mean Temperature 14 °F -  
Max Temperature 21 °F 33 °F 57 °F (2009)
Min Temperature 6 °F 15 °F -9 °F (2011)
Degree Days  
Heating Degree Days 52    
Moisture  
Dew Point 6 °F    
Average Humidity 65    
Maximum Humidity 81    
Minimum Humidity 51    
Precipitation  
Precipitation 0.00 in - - ()
Sea Level Pressure  
Sea Level Pressure 30.29 in    
Wind  
Wind Speed 9 mph (WNW)    
Max Wind Speed 13 mph    
Max Gust Speed -    
Visibility 9 miles    
Events      
Averages and records for this station are not official NWS values.
T = Trace of Precipitation, MM = Missing Value Source: NWS Daily Summary

Daily Weather History Graph

Daily Weather History Graph

Search for Another Location

Airport:

Trip Planner

Search our weather history database for the weather conditions in past years. The results will help you decide how hot, cold, wet, or windy it might be!

Date:

Astronomy

Feb. 10, 2014 Rise Set
Actual Time 7:36 AM EST 6:00 PM EST
Civil Twilight 7:07 AM EST 6:29 PM EST
Nautical Twilight 6:34 AM EST 7:02 PM EST
Astronomical Twilight 6:02 AM EST 7:35 PM EST
Moon 2:26 PM EST (2/10) 4:31 AM EST (2/10)
Length of Visible Light 11h 21m
Length of Day
10h 23m
Waxing Gibbous, 84% of the Moon is Illuminated
Feb 10
Waxing Gibbous
Feb 14
Full
Feb 22
Last Quarter
Mar 1
New
Mar 8
First Quarter

Hourly Weather History & Observations

Time (EST) Temp. Windchill Dew Point Humidity Pressure Visibility Wind Dir Wind Speed Gust Speed Precip Events Conditions
12:53 AM 18.0 °F 6.9 °F 10.0 °F 71% 30.19 in 10.0 mi West 9.2 mph - N/A   Overcast
1:53 AM 18.0 °F 6.1 °F 10.0 °F 71% 30.19 in 9.0 mi West 10.4 mph - N/A   Overcast
2:53 AM 17.1 °F 5.0 °F 9.0 °F 71% 30.20 in 9.0 mi West 10.4 mph - N/A   Overcast
3:53 AM 15.1 °F 2.5 °F 8.1 °F 74% 30.21 in 9.0 mi WNW 10.4 mph - N/A   Overcast
4:53 AM 12.0 °F 0.5 °F 6.1 °F 77% 30.22 in 8.0 mi West 8.1 mph - N/A   Scattered Clouds
5:45 AM 12.2 °F 4.3 °F 6.8 °F 79% 30.20 in 7.0 mi West 4.6 mph - N/A   Overcast
5:53 AM 10.9 °F 1.4 °F 6.1 °F 81% 30.24 in 6.0 mi West 5.8 mph - N/A   Mostly Cloudy
6:53 AM 9.0 °F -2.2 °F 3.9 °F 80% 30.25 in 6.0 mi West 6.9 mph - N/A   Clear
7:53 AM 9.0 °F -3.2 °F 3.0 °F 77% 30.27 in 4.0 mi West 8.1 mph - N/A   Clear
8:53 AM 6.1 °F - 1.0 °F 80% 30.30 in 3.0 mi Calm Calm - N/A   Clear
9:53 AM 15.1 °F 9.4 °F 8.1 °F 74% 30.31 in 5.0 mi Variable 3.5 mph - N/A   Clear
10:53 AM 19.9 °F 10.1 °F 6.1 °F 55% 30.31 in 10.0 mi West 8.1 mph - N/A   Clear
11:53 AM 19.9 °F 7.3 °F 7.0 °F 57% 30.31 in 10.0 mi NW 12.7 mph - N/A   Scattered Clouds
12:53 PM 21.9 °F 9.8 °F 8.1 °F 55% 30.29 in 10.0 mi WNW 12.7 mph - N/A   Overcast
1:53 PM 21.9 °F 11.0 °F 6.1 °F 51% 30.27 in 10.0 mi WNW 10.4 mph - N/A   Overcast
2:53 PM 21.9 °F 11.7 °F 6.1 °F 51% 30.27 in 10.0 mi WNW 9.2 mph - N/A   Overcast
3:53 PM 21.9 °F 11.7 °F 6.1 °F 51% 30.29 in 10.0 mi WNW 9.2 mph - N/A   Overcast
4:53 PM 21.0 °F 13.4 °F 7.0 °F 55% 30.30 in 10.0 mi West 5.8 mph - N/A   Overcast
5:53 PM 21.0 °F 16.2 °F 8.1 °F 57% 30.32 in 10.0 mi West 3.5 mph - N/A   Overcast
6:53 PM 19.9 °F 13.4 °F 8.1 °F 60% 30.33 in 10.0 mi NW 4.6 mph - N/A   Overcast
7:53 PM 19.9 °F 7.9 °F 8.1 °F 60% 30.35 in 10.0 mi WNW 11.5 mph - N/A   Overcast
8:53 PM 17.1 °F 3.6 °F 6.1 °F 62% 30.36 in 10.0 mi NW 12.7 mph - N/A   Overcast
9:45 PM 17.6 °F 5.7 °F 5.0 °F 58% 30.34 in 10.0 mi NW 10.4 mph - N/A   Overcast
9:53 PM 17.1 °F 4.3 °F 5.0 °F 59% 30.38 in 10.0 mi NW 11.5 mph - N/A   Overcast
10:53 PM 15.1 °F 2.5 °F 3.0 °F 59% 30.39 in 10.0 mi NW 10.4 mph - N/A   Overcast
11:53 PM 14.0 °F 3.9 °F 1.9 °F 59% 30.40 in 10.0 mi WNW 6.9 mph - N/A   Overcast